Flag for Turkey Weather past 2 weeks in Samsun, Turkey

Now
77 °F

Partly sunny.


Feels Like: 78 °F
Forecast: 57 / 62 °F
Wind: 9 mph from Southwest

Location: Samsun / Carsamba

Current Time: Oct 24, 2014 at 12:43:27 PM

Latest Report: Oct 24, 2014 at 11:50 AM


Visibility: N/A

Pressure: 29.92 "Hg

Humidity: 39%

Dew point: 50 °F

Location of SamsunLocation

Historic Weather in Samsun — Graph

°F

Samsun temperature yesterday

Maximum temperature yesterday: 73 °F (at 10:50 AM)
Minimum temperature yesterday: 48 °F (at 12:50 AM)
Average temperature yesterday: 61 °F

Past Weeks' High & Low Weather Summary

 TemperatureHumidityPressure
High82 °F (Oct 22, 2:50 PM)100% (Oct 9, 11:50 PM)30.30 "Hg (Oct 9, 11:50 PM)
Low37 °F (Oct 21, 4:50 AM)20% (Oct 22, 2:50 PM)29.68 "Hg (Oct 18, 11:50 AM)
Average61 °F81%30.00 "Hg
* Reported Oct 9 11:50 AM — Oct 24 11:50 AM, Samsun, Weather by CustomWeather, © 2014

Note: Actual official high and low records may vary slightly from our data, if they occured in-between our weather recording intervals... More about our weather records

Advertising

Samsun weather history for previous 24 hours

 ConditionsComfort  
Time TempWeatherWind HumidityBarometerVisibility
11:50 AM
Oct 24
77 °FPartly sunny.9 mph39%29.92 "HgN/A
10:50 AM77 °FBroken clouds.6 mph39%29.89 "HgN/A
9:50 AM75 °FPartly sunny.7 mph41%29.89 "HgN/A
8:50 AM72 °FPartly sunny.8 mph47%29.89 "HgN/A
7:50 AM66 °FPartly cloudy.9 mph56%29.89 "HgN/A
6:50 AM59 °FPartly cloudy.6 mph72%29.86 "HgN/A
5:50 AM63 °FPassing clouds.6 mph59%29.86 "HgN/A
4:50 AM61 °FPassing clouds.8 mph63%29.86 "HgN/A
3:50 AM64 °FPassing clouds.7 mph56%29.86 "HgN/A
2:50 AM66 °FPassing clouds.9 mph52%29.86 "HgN/A
1:50 AM59 °FPassing clouds.9 mph72%29.86 "HgN/A
12:50 AM52 °FPassing clouds.1 mph94%29.86 "HgN/A
11:50 PM
Oct 23
52 °FPassing clouds.3 mph88%29.86 "HgN/A
10:50 PM54 °FPassing clouds.5 mph88%29.86 "HgN/A
9:50 PM54 °FPassing clouds.2 mph88%29.86 "HgN/A
8:50 PM55 °FPassing clouds.5 mph88%29.83 "HgN/A
7:50 PM55 °FPassing clouds.5 mph88%29.83 "HgN/A
6:50 PM57 °FPassing clouds.8 mph82%29.86 "HgN/A
5:50 PM64 °FPartly sunny.6 mph68%29.83 "HgN/A
4:50 PM66 °FPartly sunny.9 mph78%29.83 "HgN/A
3:50 PM73 °FPartly sunny.5 mph53%29.86 "HgN/A
2:50 PM72 °FPartly sunny.9 mph44%29.86 "HgN/A
1:50 PM73 °FPartly sunny.9 mph36%29.86 "HgN/A
12:50 PM73 °FPartly sunny.9 mph36%29.86 "HgN/A
Weather by CustomWeather, © 2014

See weather overviewHow to use our weather pages